Harare Kutsaga, Zimbabwe

9:56 PM CAT on September 25, 2017 (GMT +0200)
Harare Kutsaga

Weather History for FVHA - March, 2013

Change the Weather History Date:

Thursday, March 14, 2013

  Actual Average Record
Temperature  
Mean Temperature 65 °F -  
Max Temperature 76 °F 79 °F 86 °F (2012)
Min Temperature 54 °F 56 °F 54 °F (2013)
Growing Degree Days 15 (Base 50)    
Moisture  
Dew Point 56 °F    
Average Humidity 73    
Maximum Humidity 100    
Minimum Humidity 38    
Precipitation  
Precipitation 0.00 in 0.09 in - ()
Sea Level Pressure  
Sea Level Pressure 30.21 in    
Wind  
Wind Speed 5 mph ()    
Max Wind Speed 8 mph    
Max Gust Speed -    
Visibility 8.3 miles    
Events Rain    
Averages and records for this station are not official NWS values.
T = Trace of Precipitation, MM = Missing Value Source: Averaged Metar Reports

Daily Weather History Graph

Daily Weather History Graph

Search for Another Location

Airport or City:

Trip Planner

Search our weather history database for the weather conditions in past years. The results will help you decide how hot, cold, wet, or windy it might be!

Date:

Astronomy

Mar. 14, 2013 Rise Set
Actual Time 5:57 AM CAT 6:11 PM CAT
Civil Twilight 5:36 AM CAT 6:32 PM CAT
Nautical Twilight 5:10 AM CAT 6:58 PM CAT
Astronomical Twilight 4:45 AM CAT 7:23 PM CAT
Moon 8:04 AM CAT (3/14) 7:54 PM CAT (3/14)
Length of Visible Light 12h 56m
Length of Day
12h 13m
Waxing Crescent, 7% of the Moon is Illuminated
Mar 14
Waxing Crescent
Mar 19
First Quarter
Mar 27
Full
Apr 3
Last Quarter
Apr 10
New

Hourly Weather History & Observations

Time (CAT) Temp. Dew Point Humidity Pressure Visibility Wind Dir Wind Speed Gust Speed Precip Events Conditions
12:00 AM 60.8 °F 55.4 °F 82% 30.24 in - ESE 4.6 mph - N/A   Clear
2:00 AM 58 °F 55 °F 86%  in 19 mi SE 6.9 mph - -   Scattered Clouds
2:00 AM 57.2 °F 55.4 °F 94% 30.21 in - SE 6.9 mph - N/A   Clear
3:00 AM 55.4 °F 53.6 °F 94% 30.18 in - SE 4.6 mph - N/A   Clear
5:00 AM 55.4 °F 53.6 °F 94% 30.21 in - ESE 6.9 mph - N/A   Clear
6:00 AM 53.6 °F 53.6 °F 100% 30.21 in 6.2 mi ESE 4.6 mph - N/A   Partly Cloudy
7:00 AM 59.0 °F 55.4 °F 88% 30.24 in 6.2 mi SE 5.8 mph - N/A   Partly Cloudy
8:00 AM 61 °F 57 °F 82%  in 19 mi SE 6.9 mph - -   Mostly Cloudy
8:00 AM 60.8 °F 57.2 °F 88% 30.24 in 6.2 mi SE 6.9 mph - N/A   Mostly Cloudy
9:00 AM 62.6 °F 57.2 °F 82% 30.27 in 6.2 mi SSE 5.8 mph - N/A   Mostly Cloudy
10:00 AM 69.8 °F 59.0 °F 68% 30.27 in 6.2 mi SE 5.8 mph - N/A   Mostly Cloudy
11:00 AM 68.0 °F 57.2 °F 68% 30.24 in 6.2 mi Variable 3.5 mph - N/A   Mostly Cloudy
12:00 PM 71.6 °F 55.4 °F 57% 30.24 in 6.2 mi West 4.6 mph - N/A   Mostly Cloudy
1:00 PM 71.6 °F 55.4 °F 57% 30.21 in 6.2 mi South 4.6 mph - N/A   Mostly Cloudy
2:00 PM 76 °F 55 °F 38%  in 19 mi SSW 6.9 mph - -   Mostly Cloudy
2:00 PM 73.4 °F 55.4 °F 53% 30.18 in 6.2 mi SSW 6.9 mph - N/A   Mostly Cloudy
3:00 PM 75.2 °F 53.6 °F 47% 30.15 in 6.2 mi South 5.8 mph - N/A   Scattered Clouds
5:00 PM 75.2 °F 57.2 °F 53% 30.15 in - South 8.1 mph - N/A   Clear
6:00 PM 69.8 °F 55.4 °F 60% 30.15 in - South 6.9 mph - N/A   Clear
7:00 PM 66.2 °F 55.4 °F 68% 30.18 in 6.2 mi SE 8.1 mph - N/A   Scattered Clouds
8:00 PM 64.4 °F 57.2 °F 77% 30.18 in 6.2 mi SE 5.8 mph - N/A   Scattered Clouds
9:00 PM 64.4 °F 55.4 °F 73% 30.21 in 6.2 mi East 8.1 mph - N/A   Scattered Clouds
10:00 PM 64.4 °F 55.4 °F 73% 30.24 in 6.2 mi East 5.8 mph - N/A   Scattered Clouds
11:00 PM 64.4 °F 55.4 °F 73% 30.24 in 6.2 mi SE 6.9 mph - N/A Rain Light Rain